Location: The Jewett Observatory
(46.7288°N, 117.1525°W)
Time: 10:12:10
(UTC-07:00)

Meteor 1-28 Rocket - Visible Passes

Search period start: 26 July 2014 00:00
Search period end: 05 August 2014 00:00
Orbit: 514 x 537 km, 97.3° (Epoch: 25 July)

Date Brightness Start Highest point End Pass type
(mag) Time Alt. Az. Time Alt. Az. Time Alt. Az.
26 Jul 5.7 22:18:05 10° NNW 22:21:06 23° WNW 22:24:07 10° WSW visible
27 Jul 5.2 22:06:03 10° N 22:09:23 29° WNW 22:12:43 10° SW visible
28 Jul 4.7 21:54:05 10° N 21:57:39 39° WNW 22:01:14 10° SW visible
29 Jul 4.1 21:42:10 10° N 21:45:54 53° WNW 21:49:38 10° SSW visible
30 Jul 3.5 21:30:18 10° N 21:34:08 74° WNW 21:37:57 10° SSW visible
31 Jul 3.2 21:18:30 10° NNE 21:22:20 81° ESE 21:26:11 10° S visible
31 Jul 6.6 22:55:27 10° NW 22:56:01 10° WNW 22:56:34 10° WNW visible
01 Aug 3.3 21:06:44 10° NNE 21:10:32 59° E 21:14:19 10° S visible
01 Aug 6.3 22:42:27 10° NNW 22:44:21 13° WNW 22:46:15 10° W visible
02 Aug 3.6 20:55:01 10° NNE 20:58:42 42° E 21:02:22 10° S visible
02 Aug 6.1 22:30:07 10° NNW 22:32:40 17° WNW 22:35:14 10° WSW visible
03 Aug 5.7 22:17:57 10° NNW 22:20:58 22° WNW 22:23:59 10° WSW visible
04 Aug 5.3 22:05:54 10° N 22:09:15 29° WNW 22:12:36 10° SW visible
